Weather History for KBBW - August, 2013

Change the Weather History Date:

Thursday, August 1, 2013

  Actual Average Record
Temperature  
Mean Temperature 73 °F 74 °F  
Max Temperature 85 °F 86 °F 104 °F (1930)
Min Temperature 60 °F 62 °F 44 °F (1995)
Degree Days  
Heating Degree Days 0 0  
Month to date heating degree days 0 0  
Since 1 June heating degree days 51 51  
Cooling Degree Days 8 9  
Month to date cooling degree days 8 9  
Year to date cooling degree days 451 483  
Since 1 June cooling degree days 416 449  
Growing Degree Days 22 (Base 50)    
Moisture  
Dew Point 66 °F    
Average Humidity 81    
Maximum Humidity 100    
Minimum Humidity 61    
Precipitation  
Precipitation 1.08 in 0.08 in 2.26 in (1909)
Sea Level Pressure  
Sea Level Pressure 30.02 in    
Wind  
Wind Speed 10 mph (SSE)    
Max Wind Speed 25 mph    
Max Gust Speed 36 mph    
Visibility 8 miles    
Events Rain , Thunderstorm    
T = Trace of Precipitation, MM = Missing Value Source: NWS Daily Summary

Daily Weather History Graph

Daily Weather History Graph

Search for Another Location

Airport or City:

Trip Planner

Search our weather history database for the weather conditions in past years. The results will help you decide how hot, cold, wet, or windy it might be!

Date:

Astronomy

Aug. 01, 2013 Rise Set
Actual Time 6:33 AM CDT 8:55 PM CDT
Civil Twilight 6:02 AM CDT 9:26 PM CDT
Nautical Twilight 5:23 AM CDT 10:04 PM CDT
Astronomical Twilight 4:41 AM CDT 10:47 PM CDT
Moon 2:10 AM CDT 5:06 PM CDT
Length of Visible Light 15h 23m
Length of Day
14h 21m
Waning Crescent, 23% of the Moon is Illuminated
Aug 1
Waning Crescent
Aug 6
New
Aug 14
First Quarter
Aug 20
Full
Aug 28
Last Quarter

Hourly Weather History & Observations

Time (CDT) Temp. Heat Index Dew Point Humidity Pressure Visibility Wind Dir Wind Speed Gust Speed Precip Events Conditions
12:53 AM 64.0 °F - 64.0 °F 100% 30.11 in 6.0 mi Calm Calm - N/A   Clear
1:53 AM 64.0 °F - 64.0 °F 100% 30.10 in 5.0 mi Calm Calm - N/A   Scattered Clouds
2:11 AM 64.4 °F - 64.4 °F 100% 30.15 in 3.0 mi Calm Calm - 0.02 in Rain , Thunderstorm Light Rain
2:14 AM 64.4 °F - 64.4 °F 100% 30.15 in 1.8 mi Calm Calm - 0.05 in Rain , Thunderstorm Rain
2:27 AM 64.4 °F - 64.4 °F 100% 30.15 in 2.0 mi NNW 8.1 mph - 0.12 in Rain , Thunderstorm Heavy Thunderstorms and Rain
2:46 AM 66.2 °F - 66.2 °F 100% 30.16 in 1.0 mi NW 6.9 mph - 0.39 in Rain , Thunderstorm Heavy Thunderstorms and Rain
2:53 AM 66.0 °F - 66.0 °F 100% 30.11 in 1.0 mi West 6.9 mph - 0.51 in Rain , Thunderstorm Heavy Thunderstorms and Rain
3:08 AM 64.4 °F - 64.4 °F 100% 30.15 in 0.8 mi South 10.4 mph - 0.39 in Rain , Thunderstorm Heavy Thunderstorms and Rain
3:14 AM 64.4 °F - 64.4 °F 100% 30.14 in 1.2 mi South 4.6 mph - 0.42 in Rain , Thunderstorm Heavy Thunderstorms and Rain
3:17 AM 64.4 °F - 64.4 °F 100% 30.14 in 3.0 mi South 10.4 mph - 0.42 in Rain , Thunderstorm Light Thunderstorms and Rain
3:23 AM 66.2 °F - 66.2 °F 100% 30.14 in 8.0 mi SSE 12.7 mph 17.3 mph 0.42 in Rain Light Rain
3:31 AM 66.2 °F - 66.2 °F 100% 30.14 in 10.0 mi SE 8.1 mph - 0.42 in Rain , Thunderstorm Light Rain
3:53 AM 64.9 °F - 64.9 °F 100% 30.08 in 10.0 mi ESE 4.6 mph - 0.42 in   Partly Cloudy
4:14 AM 64.4 °F - 64.4 °F 100% 30.14 in 10.0 mi Calm Calm - N/A Thunderstorm Clear
4:29 AM 62.6 °F - 62.6 °F 100% 30.14 in 10.0 mi Calm Calm - N/A   Clear
4:53 AM 62.1 °F - 62.1 °F 100% 30.08 in 10.0 mi Calm Calm - N/A   Clear
5:53 AM 61.0 °F - 61.0 °F 100% 30.09 in 10.0 mi Calm Calm - N/A   Partly Cloudy
6:53 AM 60.1 °F - 60.1 °F 100% 30.06 in 8.0 mi Calm Calm - N/A   Clear
7:53 AM 64.9 °F - 64.0 °F 97% 30.06 in 8.0 mi Calm Calm - N/A   Clear
8:53 AM 68.0 °F - 66.0 °F 93% 30.07 in 8.0 mi Calm Calm - N/A   Clear
9:53 AM 75.0 °F - 69.1 °F 82% 30.05 in 10.0 mi South 9.2 mph - N/A   Clear
10:53 AM 78.1 °F - 69.1 °F 74% 30.04 in 10.0 mi South 11.5 mph - N/A   Clear
11:53 AM 79.0 °F - 69.1 °F 72% 30.03 in 10.0 mi South 13.8 mph 21.9 mph N/A   Partly Cloudy
12:53 PM 80.1 °F 82.7 °F 68.0 °F 67% 30.02 in 10.0 mi SSW 13.8 mph 23.0 mph N/A   Mostly Cloudy
1:53 PM 81.0 °F 83.8 °F 68.0 °F 65% 29.97 in 10.0 mi South 13.8 mph 20.7 mph N/A   Partly Cloudy
2:53 PM 81.0 °F 84.1 °F 69.1 °F 67% 29.93 in 10.0 mi South 18.4 mph 25.3 mph N/A   Scattered Clouds
3:53 PM 82.9 °F 86.5 °F 69.1 °F 63% 29.90 in 10.0 mi South 18.4 mph 26.5 mph N/A   Partly Cloudy
4:53 PM 84.9 °F 88.8 °F 69.1 °F 59% 29.87 in 10.0 mi South 13.8 mph 19.6 mph N/A   Clear
5:53 PM 82.9 °F 85.8 °F 68.0 °F 60% 29.87 in 10.0 mi SSE 11.5 mph - N/A   Scattered Clouds
6:53 PM 81.0 °F 84.4 °F 70.0 °F 69% 29.86 in 10.0 mi SSE 11.5 mph - N/A   Mostly Cloudy
7:53 PM 79.0 °F - 70.0 °F 74% 29.86 in 10.0 mi SE 6.9 mph - 0.00 in Rain , Thunderstorm Light Rain
8:53 PM 73.0 °F - 70.0 °F 90% 29.87 in 7.0 mi East 8.1 mph 23.0 mph 0.11 in Rain , Thunderstorm Light Thunderstorms and Rain
9:53 PM 72.0 °F - 71.1 °F 97% 29.79 in 10.0 mi South 17.3 mph 27.6 mph 0.02 in Rain , Thunderstorm Light Rain
10:04 PM 73.4 °F - 71.6 °F 94% 29.87 in 10.0 mi SSE 10.4 mph 23.0 mph 0.00 in   Partly Cloudy
10:18 PM 71.6 °F - 69.8 °F 94% 29.89 in 9.0 mi ENE 16.1 mph 25.3 mph 0.01 in Thunderstorm Mostly Cloudy
10:22 PM 69.8 °F - 69.8 °F 100% 29.90 in 10.0 mi East 16.1 mph - 0.01 in Thunderstorm Mostly Cloudy
10:31 PM 69.8 °F - 68.0 °F 94% 29.91 in 10.0 mi East 12.7 mph 21.9 mph 0.01 in   Mostly Cloudy
10:39 PM 68.0 °F - 66.2 °F 94% 29.90 in 10.0 mi East 9.2 mph 20.7 mph 0.01 in   Mostly Cloudy
10:53 PM 68.0 °F - 66.0 °F 93% 29.83 in 10.0 mi SE 13.8 mph 24.2 mph 0.01 in   Partly Cloudy
11:53 PM 64.9 °F - 63.0 °F 93% 29.91 in 10.0 mi SSW 6.9 mph - N/A   Partly Cloudy